Location: ???????
(55.4362°N, 38.1183°E)
Time: 18:27:46
(UTC+00:00)

Cosmos 2142 Rocket - Pass Details

Date: 17 June 2021
Orbit: 953 x 1004 km, 83.0° (Epoch: 30 July)

Event Time Altitude Azimuth Distance (km) Brightness Sun altitude
Rises 22:05:26 0° 348° (NNW) 3,646 9.0 -10.8°
Reaches altitude 10° 22:07:56 10° 347° (NNW) 2,695 8.0 -10.7°
Maximum altitude 22:14:05 80° 263° (W) 977 4.5 -10.6°
Enters shadow 22:19:49 12° 177° (S) 2,535 6.1 -10.4°
